TimeMST,TemperatureF,Dew PointF,Humidity,Sea Level PressureIn,VisibilityMPH,Wind Direction,Wind SpeedMPH,Gust SpeedMPH,PrecipitationIn,Events,Conditions,WindDirDegrees,DateUTC
12:55 AM,78.8,37.4,23,29.82,10.0,SW,6.9,-,N/A,,Clear,220,2013-06-21 07:55:00
1:55 AM,75.2,35.6,24,29.82,10.0,Calm,Calm,-,N/A,,Clear,0,2013-06-21 08:55:00
2:55 AM,69.8,35.6,28,29.83,10.0,East,3.5,-,N/A,,Partly Cloudy,90,2013-06-21 09:55:00
3:55 AM,68.0,35.6,30,29.84,10.0,SSW,3.5,-,N/A,,Partly Cloudy,200,2013-06-21 10:55:00
4:55 AM,69.8,37.4,31,29.85,10.0,Calm,Calm,-,N/A,,Partly Cloudy,0,2013-06-21 11:55:00
5:55 AM,69.8,37.4,31,29.87,-9999.0,South,5.8,-,N/A,,Partly Cloudy,170,2013-06-21 12:55:00
6:55 AM,73.4,37.4,27,29.87,10.0,Variable,3.5,-,N/A,,Partly Cloudy,0,2013-06-21 13:55:00
7:55 AM,77.0,37.4,24,29.88,10.0,Variable,2.3,-,N/A,,Partly Cloudy,0,2013-06-21 14:55:00
8:55 AM,82.4,35.6,19,29.89,10.0,Variable,4.6,-,N/A,,Partly Cloudy,0,2013-06-21 15:55:00
9:55 AM,86.0,30.2,13,29.89,10.0,Variable,4.6,-,N/A,,Scattered Clouds,0,2013-06-21 16:55:00
10:55 AM,89.6,23.0,9,29.88,10.0,Variable,3.5,-,N/A,,Scattered Clouds,0,2013-06-21 17:55:00
11:55 AM,93.2,6.8,4,29.85,10.0,SW,16.1,24.2,N/A,,Scattered Clouds,220,2013-06-21 18:55:00
12:55 PM,96.8,8.6,4,29.84,10.0,WSW,23.0,29.9,N/A,,Mostly Cloudy,250,2013-06-21 19:55:00
1:55 PM,96.8,17.6,6,29.83,10.0,SSW,20.7,31.1,N/A,,Mostly Cloudy,200,2013-06-21 20:55:00
2:55 PM,93.2,19.4,7,29.84,10.0,WSW,17.3,27.6,N/A,,Mostly Cloudy,250,2013-06-21 21:55:00
3:55 PM,93.2,21.2,7,29.83,10.0,WSW,19.6,33.4,N/A,,Mostly Cloudy,250,2013-06-21 22:55:00
4:55 PM,93.2,24.8,9,29.82,10.0,WSW,19.6,25.3,N/A,,Mostly Cloudy,250,2013-06-21 23:55:00
5:55 PM,91.4,26.6,10,29.81,10.0,SSW,16.1,23.0,N/A,,Mostly Cloudy,200,2013-06-22 00:55:00
6:55 PM,89.6,26.6,10,29.81,10.0,WSW,12.7,21.9,N/A,,Mostly Cloudy,240,2013-06-22 01:55:00
7:55 PM,84.2,26.6,12,29.81,10.0,West,11.5,-,N/A,,Mostly Cloudy,270,2013-06-22 02:55:00
8:55 PM,82.4,28.4,14,29.82,10.0,SSW,5.8,-,N/A,,Mostly Cloudy,210,2013-06-22 03:55:00
9:55 PM,78.8,28.4,16,29.83,10.0,SW,4.6,-,N/A,,Mostly Cloudy,220,2013-06-22 04:55:00
10:55 PM,75.2,28.4,18,29.83,10.0,South,5.8,-,N/A,,Mostly Cloudy,190,2013-06-22 05:55:00
11:56 PM,79.0,30.9,17,29.81,10.0,Calm,Calm,-,N/A,,Clear,0,2013-06-22 06:56:00